Showing default

FLOCK 4BE 35, 60558

Orbit data source: Space-Track

FLOCK 4BE 35, 60558 is a payload satellite owned by Planet (US) in SSO that was launched on Fri, 16 Aug 2024 UTC via an FALCON 9 launch vehicle from the Air Force Western Test Range (AFWTR). Payload-class satellites include a variety of spacecraft equipped with specific instruments for various scientific and technological missions. These include communications satellites like Starlink; space stations such as the ISS; scientific satellites like the Hubble; Earth observation satellites from companies like Planet Labs, Umbra, and HawkEye 360; GPS; miniature CubeSats for education and research; and military/defense satellites.

Loading next visibility...
Identifier
60558, 2024-149CU
Orbit
SSO
Country
Flag of USUS
Related business
Manufacturer
Planet
Mission
Operational Commercial Imaging
Bus & Motor
CUBESAT 3U, Unknown motor
Mass
5.7 kg wet, 5.7 kg dry
Launch date (UTC)
2024-08-16 (1 year ago)
Launch vehicle
FALCON 9
Launch site
Air Force Western Test Range (AFWTR)
Object type
Payload
Rocket body
Debris
Shape & HBR
Box + 2 Pan, 1.0 m
Radar Cross Section
0.072 m², Medium (>0.1 m² and < 1m²)

Expand to show TLE details & history
Last TLE update: 8 hours ago

TLE from 8 hours ago
0 FLOCK 4BE 35
1 60558U 24149CU  25290.76676170  .00024022  00000-0  80069-3 0  9998
2 60558  97.4005   8.6291 0004341  90.4210 269.7528 15.31083327 65075
Epoch: 2025-10-17T18:24Z
TLE epoch observation values (Epoch: 2025-10-17T18:24:08.210Z)
Latitude
-0.00011°
Longitude
66.08749°
Altitude
475.699 km
Speed
7.628 km/s
True Right ascension
00h 34m 30s
True Declination
0° 00' 00"
Sunlit
Object was in full shadow at epoch
Visualization orbit readout
Latitude
Unknown
Longitude
Unknown
Altitude
Unknown
Speed
Unknown
Apparent Right ascension
Unknown
Apparent Declination
Unknown
Sunlit
N/A
Visualization observer readout
Local Sidereal Time
20:59:39
Azimuth
Unknown
Elevation
Unknown
Doppler factor
Unknown
Orbital elements
Apogee altitude
472.502 km
Perigee altitude
466.557 km
Semi-major axis
6,847.667 km
Eccentricity
0.00043
Inclination
97.4005°
RAAN
8.6291°
Arg. of periapsis
90.421°
True anomaly
269.70306°
Mean anomaly
269.7528°
Eccentric anomaly
269.72793°
Mean motion
3.83027 °/min
Orbital period
93.99 mins
BSTAR
0.00080069
Loading maneuver chart data...
Computing Atmospheric mass density...
Loading historical data...
Loading historical data...
Loading historical data...
Loading historical data...
Loading historical data...
Loading historical data...
Loading historical data...

Documentation

Showing up to 5 results
|